Regional Weather Roundup
Issued by NWS Charleston, SC

Current Version | Previous Version | Graphics & Text | Print | Product List | Glossary On
Versions: 1 2 3 4 5 6 7 8 9 10 11 12 13 14 15 16 17 18 19 20 21 22 23 24 25 26 27 28 29 30 31 32 33 34 35 36 37 38 39 40 41 42 43 44 45 46 47 48 49 50
000
ASUS42 KCHS 280226
RWRCHS

REGIONAL WEATHER ROUNDUP
NATIONAL WEATHER SERVICE CHARLESTON SC
1000 PM EDT FRI MAR 27 2015

NOTE: "FAIR" INDICATES FEW OR NO CLOUDS BELOW 12,000 FEET WITH NO
SIGNIFICANT WEATHER AND/OR OBSTRUCTIONS TO VISIBILITY.

NOT ALL STATIONS ARE QUALITY CONTROLLED BY THE NATIONAL
WEATHER SERVICE. USE DATA WITH CAUTION...ESPECIALLY
DEWPOINT OBSERVATIONS.

SCZ027-030-031-034>040-042>050-280300-
...SOUTHEAST SOUTH CAROLINA...

CITY           SKY/WX    TMP DP  RH WIND       PRES   REMARKS
N CHARLESTON   CLOUDY    51  47  86 N12       29.82R
WATERFRONT PRK   N/A     54 N/A N/A N13G20      N/A
MOUNT PLEASANT LGT RAIN  52  46  82 CALM      29.83R
PINOPOLIS        N/A     54  48  82 VRB14     29.71S
MONCKS CORNER  CLOUDY    52  46  82 N7        29.84R
SUMMERVILLE    CLOUDY    50  46  87 N9G17     29.85R
BEAUFORT MCAS  CLOUDY    54  48  80 N7        29.84R
BEAUFORT ARPT  CLOUDY    54  50  87 CALM      29.84R
HILTON HEAD IS PTCLDY    54  50  87 N7        29.86R
WALTERBORO     CLOUDY    50  45  81 N9        29.87R
ALLENDALE      CLOUDY    52  46  82 N10       29.87R

...SOUTHERN MIDLANDS AND PEE DEE...

CITY           SKY/WX    TMP DP  RH WIND       PRES   REMARKS
GEORGETOWN     NOT AVBL
KINGSTREE      NOT AVBL
ORANGEBURG     CLOUDY    49  40  71 N6        29.85R
BARNWELL       DRIZZLE   48  45  87 N9        29.87S
AIKEN          CLOUDY    45  41  87 N8        29.92R
MANNING        HVY RAIN  46  36  66 N9        29.84R
COLUMBIA       LGT RAIN  49  42  77 NW7       29.87R
SUMTER         LGT RAIN  46  41  81 N7        29.83R
FLORENCE       CLOUDY    47  43  86 N8        29.83R
MYRTLE BEACH   CLOUDY    48  43  81 N12       29.82R
N MYRTLE BEACH CLOUDY    46  43  89 VRB7      29.80R

$$

GAZ063-065-086>088-099>101-113>116-118-119-134>141-150-280300-
...SOUTHEAST GEORGIA...

CITY           SKY/WX    TMP DP  RH WIND       PRES   REMARKS
SAVANNAH ARPT  PTCLDY    55  37  50 W8        29.84R
HUNTER AAF     CLEAR     53  42  65 W10       29.82R
FORT STEWART   CLEAR     55  44  68 W7        29.84R
STATESBORO     CLEAR     55  32  41 NW12      29.86R
SYLVANIA       PTCLDY    53  48  81 N9        29.87R
CLAXTON        FAIR      52  37  58 W3        29.86R

...CSRA...CENTRAL AND FAR SOUTHEAST GEORGIA...

CITY           SKY/WX    TMP DP  RH WIND       PRES   REMARKS
THOMSON        PTCLDY    49  45  87 CALM      29.94R
AUGUSTA-BUSH   PTCLDY    49  45  86 NE10      29.87R
AUGUSTA-DANIEL CLEAR     50  45  83 N8        29.87R
SWAINSBORO     FAIR      54  19  26 NW7       29.89R
VIDALIA        CLEAR     54  37  54 NW6       29.87R
EASTMAN        MOCLDY    55  32  41 NW5       29.94R
HAZLEHURST     FAIR      52  39  62 W5        29.90R
ALMA           CLEAR     51  44  77 W5        29.88R
WAYCROSS       CLEAR     55  49  79 W7        29.92R
JESUP          FAIR      52  46  82 W3        29.89R
BAXLEY         FAIR      54  43  66 W5        29.89R
BRUNSWICK      CLEAR     55  43  62 W8        29.89R
SAINT SIMONS   CLEAR     56  43  61 W8        29.87R

$$

SCZ027-028-034-036>038-045-046-048>050-GAZ119-141-280300-
...LAKE AND SUPPLEMENTAL COASTAL OBSERVATIONS...

STATION/POSITION TIME  TEMP    WIND        PRES    WAVE   SWELL
                       AIR SEA DIR/SP/G            HT/PER HT/PER/DIR
                 (UTC) (F)     (DEG/KT/KT) (MB)    (FT/S) (FT/S/D)
UPR LAKE MARION  NOT AVBL
WINYAH BAY       0145   49      10/  4     1008.0R
LAKE MURRAY      0200   46     300/  4/ 11 1011.2R
ACE BASIN NERRS  NOT AVBL
FORT PULASKI     0100   60 62  280/ 15/ 16 1009.4R
SAPELO ISLAND    0200   57     260/  8     1011.0R

$$

ANZ835-935-AMZ111-154-330-350-352-354-370-450-454-472-280300-
...C-MAN AND BUOY OBSERVATIONS...

STATION/POSITION TIME  TEMP    WIND        PRES    WAVE   SWELL
                       AIR SEA DIR/SP/G            HT/PER HT/PER/DIR
                 (UTC) (F)     (DEG/KT/KT) (MB)    (FT/S) (FT/S/D)
BUOY 41004       0150   55 69  340/ 21/ 27 1007.8R   6/ 6   2/15
BUOY 41008       0150   60 61  280/ 17/ 19 1010.5R   3/ 4   2/120/ 8
FOLLY BEACH CMAN 0200   52     360/ 10/ 12 1009.8R
CAPERS NEARSHORE 0100   52      30/ 16/ 19   N/A
FRIPP NEARSHORE  0100   56     360/ 17/ 21 1008.5R


STATION/POSITION TIME  TEMP    WIND        PRES    WAVE   SWELL
                       AIR SEA DIR/SP/G            HT/PER HT/PER/DIR
                 (UTC) (F)     (DEG/KT/KT) (MB)    (FT/S) (FT/S/D)
5E ST. MARYS GA  0121      61                N/A     3/ 3
FRYING PAN BUOY  0150   53 65   10/ 23/ 27 1006.2R   8/ 6   2/ 40/13
BUOY 41025       NOT AVBL
CAPE LOOKOUT NC  0200   46      10/ 18/ 23 1006.5R
BUOY 41002       0150   70 69  210/ 23/ 27 1006.3R  10/ 8
BUOY 41010       0120   74 76  250/ 21/ 27 1009.6R
ST AUGUSTINE FL  0200   60 60  310/ 10/ 15 1013.0R


$$



USA.gov is the U.S. government's official web portal to all federal, state and local government web resources and services.